Epoch = 2016 Feb. 22.0 TT T = 2016 Mar. 1.83367 TT Peri. = 170.75508 e = 0.5702827 Node = 89.45686 2000.0 q = 1.4732341 AU Incl. = 22.12212 a = 3.4283802 AU n = 0.15526394 P = 6.35 years
m1 = 16.0 + 5 logΔ + 10.0 log r